Regional Weather Roundup
Issued by NWS Jackson, KY

Home | Current Version | Previous Version | Text Only | Print | Product List | Glossary Off
Versions: 1 2 3 4 5 6 7 8 9 10 11 12 13 14 15 16 17 18 19 20 21 22 23 24 25 26 27

000
ASUS43 KJKL 221510
RWRJKL

EAST KENTUCKY HOURLY WEATHER ROUNDUP
NATIONAL WEATHER SERVICE JACKSON KY
1000 AM EST WED NOV 22 2017

NOTE: "FAIR" INDICATES FEW OR NO CLOUDS BELOW 12,000 FEET WITH
NO SIGNIFICANT WEATHER AND/OR OBSTRUCTIONS TO VISIBILITY.

* THESE REPORTS ARE NOT UNDER NWS QUALITY CONTROL AND MAY NOT
  REPORT WEATHER SUCH AS PRECIPITATION AND FOG.

KYZ079-080-083-085-087-088-110-112-115-119-120-221600
...EASTERN KENTUCKY...

CITY           SKY/WX    TMP DP  RH WIND       PRES   REMARKS
JACKSON        PTSUNNY   35  26  69 VRB6      30.24R WCI  30
LONDON         CLOUDY    36  27  69 NE8       30.25R WCI  30
SOMERSET*      CLOUDY    32  28  86 N9        30.29R WCI  24
MONTICELLO*    PTSUNNY   35  28  75 N16G22    30.29S WCI  25
WILLIAMSBURG*  MOSUNNY   36  28  75 N8        30.25R WCI  29
MIDDLESBORO*   PTSUNNY   40  33  77 NE8       30.23R WCI  34
HARLAN APT*    CLOUDY    39  32  75 CALM      30.20R
PIKE CO APT*   CLOUDY    36  29  76 NW8       30.22R WCI  29
BIG SANDY APT* CLOUDY    37  29  72 N5        30.24R WCI  33
MOREHEAD APT*  MOSUNNY   36  27  69 VRB5      30.28S WCI  32
$$

KYZ035-036-041-042-044-050-067-078-099-221600
...CENTRAL KENTUCKY...

CITY           SKY/WX    TMP DP  RH WIND       PRES   REMARKS
MT STERLING*   MOSUNNY   34  28  80 NE7       30.30R WCI  28
FLEMING/MASON* SUNNY     34  25  70 N8        30.30R WCI  27
DANVILLE*      SUNNY     34  28  80 N9        30.30R WCI  26
LEXINGTON      MOSUNNY   34  26  72 N9        30.30R WCI  27
FRANKFORT      MOSUNNY   35  24  64 N5        30.31R WCI  31
LOUISVILLE     MOSUNNY   37  24  59 N9        30.35R WCI  30
LEBANON*         N/A     34  25  69 N12       30.31R WCI  25
GLASGOW*       SUNNY     36  26  66 NE9       30.32R WCI  29
BOWLING GREEN  SUNNY     36  26  67 N7        30.34R WCI  30
$$

KYZ091>093-OHZ055-061-077-WVZ005-015-034-035-042-221600
...SOUTHERN OHIO/WEST VIRGINIA...

CITY           SKY/WX    TMP DP  RH WIND       PRES   REMARKS
COVINGTON      MOSUNNY   34  27  75 NW8       30.29R WCI  27
COLUMBUS       CLOUDY    35  26  69 NW12      30.26R WCI  27
DAYTON         CLOUDY    33  23  66 N10       30.29R WCI  25
WILMINGTON     CLOUDY    32  25  75 N13       30.27R WCI  22
HUNTINGTON     MOSUNNY   38  27  64 N7        30.25R WCI  33
CHARLESTON     CLOUDY    39  30  70 VRB7      30.21R WCI  34
PINEVILLE*       N/A     44  31  60 MISG      30.21R
BECKLEY        CLOUDY    36  30  79 NW12      30.13R WCI  28
BLUEFIELD      CLOUDY    38  29  70 NW9       30.12R WCI  31
LOGAN CO APT*  CLOUDY    37  32  81 VRB6      30.19R WCI  33
$$

VAZ002-007-008-TNZ017-027-036-066-071-221600
...SOUTHWEST VIRGINIA/EAST TENNESSEE...

CITY           SKY/WX    TMP DP  RH WIND       PRES   REMARKS
WISE*          CLOUDY    36  34  93 NW6       30.16R WCI  31
JONESVILLE*      N/A     45  32  61 NW7       30.22R
ABINGDON*      PTSUNNY   45  33  63 NE6       30.15R
BRISTOL        MOSUNNY   49  37  63 N10       30.16R
MORRISTOWN*    SUNNY     46  36  66 VRB6G12   30.18R
SEVIERVILLE*   SUNNY     50  36  57 N7        30.19R
LAFOLLETTE*    PTSUNNY   43  32  65 VRB7G14   30.25R
OAK RIDGE      SUNNY     46  37  71 VRB5      30.22R
CROSSVILLE     CLOUDY    38  33  82 N10       30.20R WCI  31
NASHVILLE      MOSUNNY   38  26  62 N13       30.31R WCI  30
$$

...KEY TO REMARKS...
VSB - VISIBILITY IN MILES
WCI - WIND CHILL INDEX
HX  - HEAT INDEX

$$




USA.gov is the U.S. government's official web portal to all federal, state and local government web resources and services.